[[{"header":{"parameterUnit":"m.s-1","parameterCategory":1,"la1":30.2991,"la2":30.254,"lo1":-89.0895,"lo2":-89.0444,"dy":0.0017,"dx":0.0017,"nx":28,"ny":28,"refTime":"2023-08-18T03:00:00:Z","depth":0,"parameterNumber":2,"parameterNumberName":"U-component_of_WINDS"},"data":[0,0,0,0,0,0,0,0,0,0,0,0,0,0,0,0,0,0,0,0,0,0,0,0,0,0,0,0,0,0,0,0,0,0,0,0,0,0,0,0,0,0,0,0,0,0,0,0,0,0,0,0,0,0,0,0,0,0,3.8543,3.8544,0,3.861,3.8611,3.8612,3.8516,3.8512,3.8509,3.8506,3.8574,3.8579,3.8584,0,0,0,0,0,0,0,0,0,0,0,0,0,3.833,3.8335,3.8543,3.8544,3.8545,3.861,3.8611,3.8612,3.8516,3.8512,3.8508,3.8504,3.8573,3.8578,3.8584,0,0,0,0,0,0,0,0,0,0,0,0,0,3.8413,3.8336,3.8543,3.8505,3.8502,3.861,3.8611,3.8612,3.8517,3.8512,3.8507,3.8502,3.8571,3.8578,3.8585,3.8733,0,0,3.8608,3.8611,0,0,0,0,0,0,0,0,3.8408,3.8421,3.851,3.8508,3.8505,3.8549,3.8561,3.8653,3.8518,3.8511,3.8506,3.85,3.857,3.8577,3.8601,3.8736,3.8739,3.8609,3.8613,3.8616,3.8619,0,0,0,0,0,0,0,3.8403,3.8417,3.8569,3.8511,3.8508,3.8484,3.849,3.8578,3.8568,3.8512,3.8505,3.8514,3.8568,3.8594,3.8602,3.874,3.8608,3.8615,3.862,3.8623,3.8998,3.9003,0,0,0,0,0,0,3.8402,3.8413,3.8567,3.8571,3.8443,3.8492,3.8499,3.854,3.8567,3.8566,3.8518,3.8509,3.8584,3.8593,3.8604,3.8777,3.8616,3.8623,3.8628,3.8993,3.8999,3.9005,0,0,0,0,0,0,3.8397,3.8416,3.8565,3.849,3.8507,3.8501,3.8548,3.8544,3.857,3.8572,3.857,3.8547,3.858,3.8593,3.8701,3.8778,3.8627,3.8634,3.8986,3.8995,3.9002,3.9125,0,0,0,0,0,0,3.8392,3.8415,3.8472,3.8492,3.8512,3.8662,3.8553,3.8549,3.8584,3.8572,3.8599,3.8598,3.8577,3.8691,3.8709,3.8785,3.8639,3.8979,3.899,3.9,3.9114,3.9136,3.9156,0,0,0,0,0,3.8384,3.8504,3.8475,3.8494,3.8582,3.8666,3.8677,3.8651,3.859,3.8646,3.8647,3.8597,3.8767,3.8703,3.8722,3.8802,3.8974,3.8987,3.8999,3.9105,3.9132,3.9155,0,0,0,0,0,0,3.8492,3.8506,3.8474,3.8604,3.8635,3.865,3.872,3.8681,3.8729,3.8717,3.8682,3.8689,3.8804,3.8814,3.8742,3.8946,3.8861,3.8877,3.8934,3.896,3.8981,3.8974,3.8646,0,0,0,0,0,3.8531,3.8599,3.8607,3.8721,3.8738,3.8727,3.8762,3.8739,3.8769,3.8782,3.8791,3.8822,3.8882,3.8922,3.8978,3.9116,3.9119,3.9181,3.9201,3.9218,3.9233,3.9304,3.9331,3.9046,3.9046,3.9046,0,0,3.8612,3.8628,3.8673,3.8743,3.8764,3.8833,3.8738,3.8816,3.8867,3.8793,3.8895,3.8903,3.8935,3.9059,3.9113,3.9071,3.9312,3.9234,3.9248,3.9253,3.932,3.9346,3.937,3.9054,3.9053,3.9052,0,0,3.8794,3.8815,3.891,3.8933,3.8966,3.8958,3.8981,3.9003,3.9005,3.9107,3.9052,3.9113,3.9218,3.9242,3.9268,3.946,3.9414,3.9479,3.9587,3.9657,3.9679,3.9699,3.9765,3.9789,3.9494,3.9494,3.9495,0,3.889,3.8993,3.8964,3.9046,3.9077,3.9015,3.9111,3.9134,3.9184,3.9207,3.9159,3.9288,3.9306,3.9433,3.9479,3.9504,3.9528,3.9475,3.9678,3.9698,3.9716,3.9778,3.9803,3.9502,3.9501,3.95,3.9499,0,3.9109,3.9181,3.9254,3.9303,3.9344,3.9432,3.9416,3.946,3.9434,3.9431,3.9534,3.9553,3.9611,3.964,3.9616,3.9763,3.9735,3.9684,3.9597,3.9751,3.9808,3.9832,3.9512,3.951,3.9507,3.9506,0,0,3.9359,3.9391,3.9418,3.9439,3.9471,3.9526,3.9611,3.9667,3.9705,3.9742,3.9811,3.9901,3.9853,3.9883,3.9861,3.9923,4.0071,3.9864,3.9864,3.9899,4.0232,4.0268,4.0296,4.0042,4.0047,4.005,4.0228,0,3.9538,3.9685,3.9662,3.9804,3.9869,3.9811,3.9885,3.9912,3.9912,3.9967,3.9966,4.0029,3.9963,3.998,4.0039,4.004,4.0137,4.0028,4.0104,4.0107,4.0095,4.0327,4.0366,4.0532,4.0251,4.0254,4.0257,0,3.9767,3.9812,3.996,3.9981,4.0007,4.0074,4.0123,4.0177,4.0206,4.0201,4.0235,4.0201,4.0285,4.02,4.0314,4.0241,4.0271,4.0276,4.0282,4.0286,4.0189,4.0334,4.0585,4.0609,4.0293,4.029,4.0288,0,3.9931,4.0029,4.0129,4.0149,4.0177,4.0225,4.0238,4.0263,4.0298,4.0341,4.0362,4.0415,4.0443,4.0484,4.0465,4.0405,4.0583,4.0496,4.0579,4.058,4.0616,4.0614,4.0873,4.0642,4.0641,4.0641,4.064,0,4.0132,4.0225,4.0203,4.0265,4.0366,4.0339,4.044,4.0446,4.0469,4.053,4.0484,4.0542,4.0515,4.0571,4.0558,4.0653,4.0667,4.0664,4.0658,4.0666,4.0666,4.0683,4.067,4.0648,4.0646,4.0645,4.0644,0,4.0331,4.0321,4.0426,4.0444,4.045,4.0524,4.0538,4.0595,4.0592,4.067,4.0687,4.0681,4.0745,4.073,4.0801,4.0791,4.091,4.0892,4.09,4.0895,4.0977,4.0969,4.1254,4.1289,4.1038,4.1041,4.1043,0,4.0459,4.0528,4.0553,4.0591,4.0608,4.067,4.0705,4.068,4.0719,4.0757,4.081,4.087,4.0915,4.102,4.1022,4.1075,4.1056,4.1152,4.1063,4.1068,4.1053,4.1048,4.1054,4.1169,4.1172,4.1174,4.1176,0,4.0685,4.0676,4.0729,4.078,4.0823,4.0862,4.0897,4.093,4.0909,4.0954,4.1019,4.1055,4.1126,4.1185,4.1234,4.1247,4.1208,4.1204,4.1226,4.1233,4.1233,4.1231,4.0945,4.1197,4.1195,4.1193,4.1192,4.1191,4.085,4.0908,4.0935,4.0994,4.1018,4.1051,4.1105,4.1108,4.1162,4.1218,4.1201,4.1274,4.13,4.1362,4.1381,4.1437,4.1401,4.1433,4.144,4.1448,4.1456,4.1227,4.1447,4.1446,4.1445,4.1445,4.1444,0,4.1072,4.1086,4.1141,4.119,4.1237,4.1197,4.1233,4.1275,4.134,4.1368,4.1415,4.1488,4.1545,4.1552,4.1605,4.1649,4.1632,4.1663,4.1658,4.1661,4.1487,4.1462,4.1676,4.1676,4.1676,4.1676,4.1676,4.1676,4.1192,4.1288,4.1283,4.1389,4.1402,4.1473,4.1497,4.1527,4.1549,4.1633,4.1681,4.1685,4.1704,4.1758,4.1808,4.1809,4.1829,4.1867,4.1861,4.1697,4.1674,4.1652,4.1628,4.1873,4.1873,4.2029,4.2031,4.2032]},{"header":{"parameterUnit":"m.s-1","parameterCategory":1,"la1":30.2991,"la2":30.254,"lo1":-89.0895,"lo2":-89.0444,"dy":0.0017,"dx":0.0017,"nx":28,"ny":28,"refTime":"2023-08-18T03:00:00:Z","depth":0,"parameterNumber":3,"parameterNumberName":"V-component_of_WINDS"},"data":[0,0,0,0,0,0,0,0,0,0,0,0,0,0,0,0,0,0,0,0,0,0,0,0,0,0,0,0,0,0,0,0,0,0,0,0,0,0,0,0,0,0,0,0,0,0,0,0,0,0,0,0,0,0,0,0,0,0,1.3768,1.3769,0,1.3868,1.3869,1.387,1.3891,1.389,1.3889,1.3889,1.3992,1.3995,1.3998,0,0,0,0,0,0,0,0,0,0,0,0,0,1.3594,1.3597,1.3768,1.3769,1.377,1.3868,1.3869,1.387,1.3891,1.389,1.3889,1.3888,1.3991,1.3995,1.3999,0,0,0,0,0,0,0,0,0,0,0,0,0,1.3679,1.3598,1.3767,1.3792,1.3795,1.3867,1.3869,1.3871,1.3891,1.389,1.3889,1.3888,1.3989,1.3994,1.3999,1.4054,0,0,1.4015,1.4017,0,0,0,0,0,0,0,0,1.3674,1.3686,1.3787,1.3791,1.3794,1.3866,1.3846,1.3932,1.3891,1.3855,1.3888,1.3887,1.3951,1.3959,1.398,1.4059,1.4063,1.4016,1.4019,1.4021,1.4022,0,0,0,0,0,0,0,1.3668,1.3681,1.3807,1.3789,1.3793,1.3798,1.3809,1.3862,1.3908,1.3858,1.386,1.3871,1.3952,1.3975,1.3983,1.4065,1.4016,1.402,1.4023,1.4025,1.4192,1.4193,0,0,0,0,0,0,1.3658,1.3676,1.3804,1.381,1.373,1.3802,1.3814,1.3844,1.3907,1.3916,1.3872,1.3872,1.3967,1.3977,1.3987,1.4054,1.4021,1.4026,1.4029,1.419,1.4192,1.4193,0,0,0,0,0,0,1.3654,1.3669,1.38,1.3744,1.3761,1.3806,1.3839,1.3846,1.3869,1.3918,1.3926,1.3887,1.3966,1.3979,1.4037,1.4058,1.4028,1.4033,1.4189,1.4191,1.4193,1.4189,0,0,0,0,0,0,1.3649,1.3668,1.3689,1.3744,1.3764,1.3849,1.3841,1.3849,1.3878,1.3879,1.3934,1.3942,1.3967,1.4029,1.4042,1.4064,1.4037,1.4187,1.419,1.4192,1.4188,1.4191,1.4194,0,0,0,0,0,1.3643,1.3685,1.369,1.3706,1.3792,1.385,1.3861,1.3888,1.388,1.3901,1.3932,1.3941,1.4053,1.4035,1.4049,1.4074,1.4186,1.4189,1.4192,1.4187,1.419,1.4194,0,0,0,0,0,0,1.3632,1.3693,1.3699,1.376,1.38,1.3853,1.3882,1.3891,1.3934,1.3933,1.3965,1.3977,1.4032,1.4059,1.4037,1.4129,1.4119,1.4125,1.411,1.4114,1.4117,1.4109,1.4041,0,0,0,0,0,1.3637,1.3679,1.373,1.3779,1.3798,1.3836,1.3863,1.388,1.3922,1.3939,1.3974,1.4015,1.4059,1.4088,1.4132,1.4192,1.4203,1.4216,1.4218,1.4221,1.4225,1.4258,1.4263,1.4203,1.4203,1.4203,0,0,1.3647,1.3685,1.371,1.3777,1.381,1.3853,1.385,1.3896,1.3928,1.3946,1.4002,1.4029,1.4077,1.4135,1.4163,1.4159,1.4244,1.4224,1.4226,1.423,1.4261,1.4267,1.4272,1.4205,1.4205,1.4205,0,0,1.3687,1.3721,1.3765,1.3797,1.3846,1.3871,1.3881,1.3933,1.3952,1.4008,1.4022,1.406,1.4137,1.417,1.4196,1.4247,1.4256,1.426,1.4276,1.4307,1.4311,1.4316,1.4333,1.4339,1.4265,1.4265,1.4265,0,1.3694,1.3759,1.3786,1.3831,1.3859,1.3877,1.3921,1.3951,1.4012,1.4031,1.4026,1.4121,1.4154,1.422,1.4232,1.4253,1.4266,1.4254,1.4309,1.4313,1.4318,1.4334,1.4341,1.4265,1.4265,1.4265,1.4265,0,1.3764,1.3809,1.3838,1.3896,1.3928,1.3972,1.4005,1.4034,1.4048,1.4073,1.413,1.417,1.4222,1.4239,1.4253,1.4306,1.4302,1.4302,1.4293,1.4323,1.4339,1.4346,1.4265,1.4265,1.4265,1.4265,0,0,1.3802,1.3872,1.3883,1.3908,1.3963,1.3998,1.4042,1.4092,1.4116,1.4157,1.4194,1.4258,1.4258,1.4288,1.4306,1.4333,1.4369,1.433,1.4332,1.4335,1.4429,1.4428,1.4435,1.4375,1.4377,1.4378,1.4425,0,1.3848,1.3928,1.3953,1.402,1.4061,1.4077,1.4115,1.4153,1.4177,1.4215,1.4242,1.4286,1.4284,1.4302,1.4329,1.4359,1.4388,1.4356,1.441,1.4412,1.4398,1.4444,1.4444,1.4486,1.4431,1.4432,1.4433,0,1.3914,1.3955,1.4025,1.4073,1.4091,1.4125,1.4172,1.4209,1.4251,1.4267,1.4299,1.4314,1.4361,1.4348,1.4412,1.4389,1.4413,1.4431,1.4433,1.4439,1.4424,1.4451,1.4501,1.4507,1.4444,1.4443,1.4442,0,1.3933,1.4006,1.4057,1.4079,1.4136,1.4159,1.4184,1.4225,1.4253,1.4294,1.4312,1.4358,1.4383,1.4418,1.4445,1.4433,1.4506,1.4496,1.452,1.4519,1.4535,1.4533,1.4588,1.455,1.455,1.455,1.455,0,1.3983,1.4025,1.4067,1.4098,1.4146,1.4173,1.4219,1.4245,1.4281,1.4317,1.4334,1.4368,1.4402,1.444,1.4461,1.451,1.4521,1.4535,1.454,1.4534,1.4532,1.4549,1.4547,1.4552,1.4551,1.4551,1.4551,0,1.4013,1.4042,1.4099,1.4148,1.4161,1.4194,1.4236,1.4266,1.4291,1.4336,1.4349,1.4387,1.4433,1.4463,1.4521,1.4535,1.4589,1.4593,1.4574,1.4577,1.4598,1.4596,1.4667,1.4677,1.4632,1.4632,1.4633,0,1.4042,1.4075,1.4127,1.4152,1.4177,1.4217,1.4245,1.4273,1.4302,1.4351,1.4376,1.4422,1.4461,1.4533,1.4566,1.461,1.4616,1.4637,1.4622,1.4614,1.4615,1.4613,1.4616,1.464,1.464,1.464,1.4641,0,1.4091,1.4103,1.4143,1.4187,1.422,1.4257,1.4293,1.4313,1.4347,1.4378,1.4424,1.4454,1.4513,1.4558,1.4605,1.4631,1.4641,1.4645,1.4653,1.4646,1.4633,1.464,1.458,1.4643,1.4643,1.4643,1.4643,1.4642,1.4121,1.415,1.4191,1.4234,1.4264,1.4298,1.4328,1.4356,1.4395,1.4445,1.4459,1.4507,1.4547,1.4611,1.4637,1.4674,1.4672,1.4684,1.4686,1.4689,1.4688,1.4627,1.4683,1.4683,1.4683,1.4683,1.4683,0,1.417,1.4197,1.4236,1.4286,1.432,1.4326,1.4366,1.4394,1.4435,1.4472,1.4509,1.4561,1.4605,1.4641,1.4686,1.4709,1.4715,1.472,1.4718,1.4724,1.4688,1.4677,1.4714,1.4714,1.4714,1.4714,1.4714,1.4714,1.42,1.4249,1.4266,1.433,1.4357,1.4403,1.4425,1.4456,1.4485,1.4542,1.4578,1.4601,1.4637,1.4684,1.4725,1.4734,1.4749,1.4753,1.4764,1.473,1.4726,1.4723,1.4712,1.4757,1.4757,1.4796,1.4796,1.4797]}]]